This demonstration page uses our WeatherBlox Daily Observations layout. Learn more.

Left ArrowRight Arrow

41.12389, -100.76542

Hourly Observations for September 1, 2020

Temp ( °F °C ) Dew Point ( °F °C ) Humidity (%) Winds ( mph kmh ) Pressure ( in mb ) Visibility ( mi km ) Precip ( " mm )
12:53 am 00:53 Mostly Cloudy 61 16.1 47 8.3 60 60 ESE 8 13 29.89 1012 10 16 0.00 0.00
1:53 am 01:53 Partly Cloudy 58 14.4 49 9.4 72 72 ESE 6 9 29.88 1012 10 16 0.00 0.00
2:53 am 02:53 Mostly Cloudy 56 13.3 50 10 81 81 Calm 29.86 1011 10 16 0.00 0.00
3:53 am 03:53 Clear 52 11.1 48 8.9 86 86 E 7 11 29.86 1011 10 16 0.00 0.00
4:53 am 04:53 Mostly Cloudy 54 12.2 49 9.4 83 83 E 5 7 29.85 1011 10 16 0.00 0.00
5:53 am 05:53 Cloudy 56 13.3 49 9.4 77 77 Calm 29.86 1011 10 16 0.00 0.00
6:53 am 06:53 Mostly Cloudy 55 12.8 50 10 83 83 Calm 29.86 1011 10 16 0.00 0.00
7:53 am 07:53 Cloudy 56 13.3 49 9.4 77 77 Calm 29.86 1011 10 16 0.00 0.00
8:53 am 08:53 Sunny 58 14.4 49 9.4 72 72 Calm 29.85 1011 10 16 0.00 0.00
9:53 am 09:53 Sunny 63 17.2 51 10.6 65 65 Calm 29.87 1012 10 16 0.00 0.00
10:53 am 10:53 Mostly Cloudy 69 20.6 53 11.7 57 57 SW 7 11 29.85 1011 10 16 0.00 0.00
11:53 am 11:53 Mostly Sunny 72 22.2 55 12.8 55 55 SW 8 13 29.83 1010 10 16 0.00 0.00
12:53 pm 12:53 Sunny 76 24.4 56 13.3 50 50 WNW 6 9 29.80 1009 10 16 0.00 0.00
1:53 pm 13:53 Sunny 78 25.6 53 11.7 42 42 W 8 13 29.80 1009 10 16 0.00 0.00
2:53 pm 14:53 Sunny 80 26.7 52 11.1 38 38 SSW 5 7 29.79 1009 10 16 0.00 0.00
3:53 pm 15:53 Sunny 84 28.9 47 8.3 27 27 SW 10 17 29.77 1008 10 16 0.00 0.00
4:53 pm 16:53 Sunny 85 29.4 46 7.8 26 26 W 13 20 29.75 1008 10 16 0.00 0.00
5:53 pm 17:53 Sunny 85 29.4 44 6.7 24 24 WNW 10 17 29.75 1007 10 16 0.00 0.00
6:53 pm 18:53 Sunny 83 28.3 42 5.6 24 24 W 12 19 29.76 1008 10 16 0.00 0.00
7:53 pm 19:53 Sunny 74 23.3 50 10 43 43 Calm 29.78 1009 10 16 0.00 0.00
8:53 pm 20:53 Clear 64 17.8 51 10.6 63 63 NE 3 6 29.83 1010 10 16 0.00 0.00
9:53 pm 21:53 Clear 61 16.1 48 8.9 63 63 Calm 29.85 1011 10 16 0.00 0.00
10:53 pm 22:53 Clear 56 13.3 47 8.3 72 72 Calm 29.88 1012 10 16 0.00 0.00
11:53 pm 23:53 Clear 52 11.1 45 7.2 77 77 NW 3 6 29.90 1013 10 16 0.00 0.00

Powered by AerisWeather